Regional Weather Roundup
Issued by NWS

Home | Current Version | Previous Version | Text Only | Print | Product List | Glossary On
Versions: 1 2 3 4 5 6 7 8 9 10 11 12 13 14 15 16 17 18 19 20 21 22 23 24 25 26 27 28 29 30 31 32 33 34 35 36 37 38 39 40 41 42 43 44 45 46 47 48 49 50
000
ASCA42 TJSJ 260410
RWRPR
PUERTO RICO/U.S. VIRGIN ISLANDS HOURLY WEATHER ROUNDUP
NATIONAL WEATHER SERVICE SAN JUAN PR
1200 AM AST SUN APR 26 2015

PRZ001-004-260500-
PUERTO RICO

CITY           SKY/WX    TMP DP  RH WIND       PRES   REMARKS
SAN JUAN LMM   CLEAR     81  73  78 SW3       29.97F
CEIBA          CLEAR     75  72  88 SW3       29.99F
$$

PRZ006-007-260500-
U.S. VIRGIN ISLANDS

CITY           SKY/WX    TMP DP  RH WIND       PRES   REMARKS
CHARLOTTE AMA  PTCLDY    81  73  78 SE7       29.97F
CHRISTIANSTED  PTCLDY    79  73  83 SE5       29.99F
$$

HOURLY WEATHER ROUNDUP FOR THE NEWS MEDIA

CITY           SKY/WX    TMP DP  RH WIND       PRES   REMARKS
ORLANDO        MOCLDY    79  71  76 SW13      29.86S
NEW YORK       MOCLDY    47  36  65 NE7       29.70F
NEWARK         MOCLDY    50  28  42 N13       29.70R
CHICAGO        CLOUDY    42  30  62 NE10      29.84S
HARTFORD       PTCLDY    38  35  89 CALM      29.71S
BOSTON         PTCLDY    44  28  53 N7        29.73S
DALLAS         CLEAR     73  54  51 CALM      29.69R
PHILADELPHIA   CLOUDY    50  36  58 SW9       29.72S
LOS ANGELES    PTCLDY    58  51  78 W18       29.89R
WASHINGTON DC  LGT RAIN  40  38  93 N6        29.73F



USA.gov is the U.S. government's official web portal to all federal, state and local government web resources and services.